Weather History for KIPT - August, 2014

Change the Weather History Date:

Friday, August 1, 2014

  Actual Average Record
Temperature  
Mean Temperature 73 °F 73 °F  
Max Temperature 83 °F 83 °F 99 °F (1955)
Min Temperature 62 °F 62 °F 48 °F (1998)
Degree Days  
Heating Degree Days 0 0  
Month to date heating degree days 0 0  
Since 1 June heating degree days 8 41  
Since 1 July heating degree days 0 4  
Cooling Degree Days 8 8  
Month to date cooling degree days 8 8  
Year to date cooling degree days 467 441  
Since 1 June cooling degree days 415 398  
Growing Degree Days 22 (Base 50)    
Moisture  
Dew Point 62 °F    
Average Humidity 72    
Maximum Humidity 93    
Minimum Humidity 51    
Precipitation  
Precipitation 0.00 in 0.13 in 1.15 in (1983)
Month to date precipitation 0.00 0.13  
Year to date precipitation 22.23 23.30  
Sea Level Pressure  
Sea Level Pressure 30.15 in    
Wind  
Wind Speed 5 mph (NE)    
Max Wind Speed 20 mph    
Max Gust Speed 26 mph    
Visibility 4 miles    
Events Fog    
T = Trace of Precipitation, MM = Missing Value Source: NWS Daily Summary

Daily Weather History Graph

Daily Weather History Graph

Search for Another Location

Airport or City:

Trip Planner

Search our weather history database for the weather conditions in past years. The results will help you decide how hot, cold, wet, or windy it might be!

Date:

Astronomy

Aug. 01, 2014 Rise Set
Actual Time 6:03 AM EDT 8:24 PM EDT
Civil Twilight 5:31 AM EDT 8:55 PM EDT
Nautical Twilight 4:53 AM EDT 9:33 PM EDT
Astronomical Twilight 4:10 AM EDT 10:15 PM EDT
Moon 11:28 AM EDT (8/1) 11:03 PM EDT (8/1)
Length of Visible Light 15h 23m
Length of Day
14h 21m
Waxing Crescent, 27% of the Moon is Illuminated
Aug 1
Waxing Crescent
Aug 3
First Quarter
Aug 10
Full
Aug 17
Last Quarter
Aug 25
New

Hourly Weather History & Observations

Time (EDT) Temp. Heat Index Dew Point Humidity Pressure Visibility Wind Dir Wind Speed Gust Speed Precip Events Conditions
12:54 AM 66.0 °F - 63.0 °F 90% 30.12 in 6.0 mi Calm Calm - 0.03 in   Mostly Cloudy
1:54 AM 64.9 °F - 62.1 °F 90% 30.13 in 6.0 mi Calm Calm - N/A   Clear
2:11 AM 64.0 °F - 61.0 °F 90% 30.13 in 5.0 mi Calm Calm - N/A   Scattered Clouds
2:20 AM 64.0 °F - 62.1 °F 93% 30.13 in 5.0 mi Calm Calm - N/A   Mostly Cloudy
2:44 AM 64.0 °F - 61.0 °F 90% 30.13 in 5.0 mi Calm Calm - N/A   Overcast
2:54 AM 62.6 °F - 60.8 °F 94% 30.14 in 4.0 mi NNW 3.5 mph - N/A   Overcast
3:17 AM 63.0 °F - 61.0 °F 93% 30.14 in 2.5 mi North 3.5 mph - N/A   Overcast
3:30 AM 63.0 °F - 61.0 °F 93% 30.14 in 3.0 mi NNW 3.5 mph - N/A   Overcast
3:40 AM 63.0 °F - 61.0 °F 93% 30.14 in 2.5 mi Calm Calm - N/A   Overcast
3:54 AM 62.6 °F - 60.8 °F 94% 30.14 in 2.5 mi Calm Calm - N/A   Overcast
4:25 AM 63.0 °F - 61.0 °F 93% 30.14 in 1.5 mi NNW 4.6 mph - N/A   Overcast
4:51 AM 62.6 °F - 60.8 °F 94% 30.14 in 0.5 mi NNW 3.5 mph - N/A Fog Fog
4:54 AM 63.0 °F - 61.0 °F 93% 30.13 in 0.5 mi North 3.5 mph - N/A Fog Fog
5:19 AM 62.1 °F - 60.1 °F 93% 30.14 in 0.2 mi North 3.5 mph - N/A Fog Fog
5:28 AM 62.1 °F - 60.1 °F 93% 30.15 in 0.5 mi North 3.5 mph - N/A Fog Fog
5:42 AM 62.1 °F - 60.1 °F 93% 30.15 in 1.0 mi North 3.5 mph - N/A   Overcast
5:54 AM 62.1 °F - 60.1 °F 93% 30.14 in 1.0 mi Calm Calm - N/A   Overcast
6:15 AM 62.1 °F - 60.1 °F 93% 30.15 in 0.5 mi Calm Calm - N/A Fog Fog
6:26 AM 62.6 °F - 60.8 °F 94% 30.15 in 0.2 mi North 3.5 mph - N/A Fog Fog
6:41 AM 62.1 °F - 60.1 °F 93% 30.16 in 0.5 mi North 3.5 mph - N/A Fog Fog
6:54 AM 62.1 °F - 60.1 °F 93% 30.15 in 0.8 mi Calm Calm - N/A   Overcast
7:29 AM 62.1 °F - 60.1 °F 93% 30.17 in 1.0 mi North 3.5 mph - N/A   Overcast
7:40 AM 62.1 °F - 60.1 °F 93% 30.17 in 0.8 mi North 3.5 mph - N/A   Overcast
7:54 AM 62.6 °F - 60.8 °F 94% 30.18 in 0.8 mi Calm Calm - N/A   Overcast
8:08 AM 63.0 °F - 60.1 °F 90% 30.18 in 1.2 mi Calm Calm - N/A   Overcast
8:54 AM 63.0 °F - 61.0 °F 93% 30.19 in 1.0 mi Calm Calm - N/A   Overcast
9:01 AM 64.0 °F - 61.0 °F 90% 30.19 in 2.5 mi Calm Calm - N/A   Overcast
9:10 AM 64.0 °F - 61.0 °F 90% 30.19 in 1.5 mi Calm Calm - N/A   Overcast
9:54 AM 64.4 °F - 60.8 °F 88% 30.18 in 1.5 mi Calm Calm - N/A   Overcast
10:01 AM 66.0 °F - 62.1 °F 87% 30.18 in 2.0 mi Calm Calm - N/A   Overcast
10:15 AM 66.0 °F - 62.1 °F 87% 30.19 in 2.0 mi Calm Calm - N/A   Overcast
10:42 AM 66.9 °F - 62.1 °F 84% 30.19 in 3.0 mi WSW 3.5 mph - N/A   Haze
10:54 AM 68.0 °F - 62.1 °F 81% 30.18 in 3.0 mi WSW 3.5 mph - N/A   Haze
11:07 AM 68.0 °F - 62.6 °F 83% 30.19 in 4.0 mi SW 3.5 mph - N/A   Haze
11:54 AM 71.1 °F - 63.0 °F 75% 30.18 in 5.0 mi SSE 3.5 mph - N/A   Haze
1:54 PM 80.6 °F 81.8 °F 62.6 °F 54% 30.15 in 10.0 mi South 3.5 mph - N/A   Mostly Cloudy
2:54 PM 82.0 °F 83.1 °F 63.0 °F 52% 30.13 in 10.0 mi SE 6.9 mph - N/A   Clear
3:54 PM 82.0 °F 83.8 °F 64.9 °F 56% 30.12 in 10.0 mi SSE 5.8 mph - N/A   Partly Cloudy
4:54 PM 82.0 °F 83.8 °F 64.9 °F 56% 30.12 in 10.0 mi SE 4.6 mph - N/A   Clear
5:54 PM 78.8 °F - 64.4 °F 61% 30.11 in 10.0 mi South 13.8 mph 25.3 mph N/A   Partly Cloudy
6:54 PM 75.0 °F - 63.0 °F 66% 30.12 in 10.0 mi South 11.5 mph 23.0 mph N/A   Mostly Cloudy
7:54 PM 73.9 °F - 63.0 °F 68% 30.13 in 10.0 mi East 5.8 mph - N/A   Mostly Cloudy
8:54 PM 72.0 °F - 63.0 °F 73% 30.15 in 10.0 mi East 9.2 mph - N/A   Mostly Cloudy
9:54 PM 70.0 °F - 62.1 °F 76% 30.17 in 10.0 mi East 9.2 mph - N/A   Overcast
10:54 PM 70.0 °F - 62.1 °F 76% 30.16 in 10.0 mi ESE 10.4 mph - N/A   Overcast
11:54 PM 68.0 °F - 62.1 °F 81% 30.16 in 10.0 mi ENE 5.8 mph - N/A   Scattered Clouds